Fryeburg, ME

12:10 AM EDT on October 24, 2017 (GMT -0400)
Eastern Slopes Regional

Weather History for KIZG - November, 2013

Change the Weather History Date:

Friday, November 22, 2013

  Actual Average Record
Temperature  
Mean Temperature 30 °F -  
Max Temperature 35 °F 41 °F 57 °F (1999)
Min Temperature 26 °F 23 °F 5 °F (2008)
Degree Days  
Heating Degree Days 34    
Moisture  
Dew Point 29 °F    
Average Humidity 88    
Maximum Humidity 100    
Minimum Humidity 61    
Precipitation  
Precipitation 0.04 in - - ()
Sea Level Pressure  
Sea Level Pressure 30.01 in    
Wind  
Wind Speed 0 mph (NE)    
Max Wind Speed 4 mph    
Max Gust Speed -    
Visibility 6 miles    
Events Fog , Rain , Snow    
Averages and records for this station are not official NWS values.
T = Trace of Precipitation, MM = Missing Value Source: NWS Daily Summary

Daily Weather History Graph

Daily Weather History Graph

Search for Another Location

Airport or City:

Trip Planner

Search our weather history database for the weather conditions in past years. The results will help you decide how hot, cold, wet, or windy it might be!

Date:

Astronomy

Nov. 22, 2013 Rise Set
Actual Time 6:48 AM EST 4:11 PM EST
Civil Twilight 6:16 AM EST 4:43 PM EST
Nautical Twilight 5:40 AM EST 5:18 PM EST
Astronomical Twilight 5:06 AM EST 5:53 PM EST
Moon 8:43 PM EST (11/22) 10:27 AM EST (11/22)
Length of Visible Light 10h 27m
Length of Day
9h 23m
Waning Gibbous, 78% of the Moon is Illuminated
Nov 22
Waning Gibbous
Nov 25
Last Quarter
Dec 2
New
Dec 9
First Quarter
Dec 17
Full

Hourly Weather History & Observations

Time (EST) Temp. Windchill Dew Point Humidity Pressure Visibility Wind Dir Wind Speed Gust Speed Precip Events Conditions
12:54 AM 28.9 °F - 17.1 °F 61% 30.32 in 10.0 mi Calm Calm - N/A   Clear
1:54 AM 26.1 °F - 17.1 °F 69% 30.32 in 10.0 mi Calm Calm - N/A   Scattered Clouds
2:54 AM 26.1 °F - 18.0 °F 71% 30.31 in 10.0 mi Calm Calm - N/A   Mostly Cloudy
3:54 AM 27.0 °F - 18.0 °F 69% 30.29 in 10.0 mi Calm Calm - N/A   Clear
4:54 AM 28.0 °F - 19.0 °F 69% 30.26 in 10.0 mi Calm Calm - N/A   Overcast
5:54 AM 30.0 °F - 19.9 °F 66% 30.26 in 10.0 mi Calm Calm - N/A   Overcast
6:54 AM 30.0 °F - 19.9 °F 66% 30.25 in 10.0 mi Calm Calm - N/A   Overcast
7:54 AM 30.9 °F - 21.0 °F 67% 30.24 in 7.0 mi Calm Calm - 0.00 in Snow Light Snow
8:54 AM 32.0 °F - 26.1 °F 79% 30.22 in 5.0 mi Calm Calm - 0.01 in Snow Light Snow
9:25 AM 32.0 °F - 27.0 °F 82% 30.19 in 1.8 mi Calm Calm - 0.01 in Snow Light Snow
9:37 AM 30.9 °F - 28.0 °F 89% 30.18 in 2.0 mi Calm Calm - 0.02 in Snow Light Snow
9:46 AM 32.0 °F - 28.0 °F 85% 30.18 in 5.0 mi Calm Calm - 0.02 in Snow Light Snow
9:54 AM 32.0 °F - 28.0 °F 85% 30.19 in 3.0 mi Calm Calm - 0.02 in Snow Light Snow
10:10 AM 33.1 °F - 28.9 °F 85% 30.16 in 9.0 mi Calm Calm - 0.00 in Snow Light Snow
10:54 AM 32.0 °F - 28.9 °F 88% 30.15 in 10.0 mi Calm Calm - 0.00 in   Overcast
11:51 AM 33.8 °F - 30.2 °F 87% 30.10 in 10.0 mi Calm Calm - 0.01 in Rain Light Rain
11:54 AM 34.0 °F - 30.9 °F 89% 30.12 in 10.0 mi Calm Calm - 0.01 in Rain Light Rain
12:05 PM 34.0 °F - 30.9 °F 89% 30.09 in 10.0 mi Calm Calm - 0.00 in   Overcast
12:54 PM 35.1 °F - 32.0 °F 89% 30.09 in 10.0 mi Calm Calm - 0.00 in   Overcast
1:15 PM 35.1 °F - 32.0 °F 89% 30.04 in 10.0 mi Calm Calm - 0.00 in Rain Light Rain
1:54 PM 35.1 °F - 32.0 °F 89% 30.04 in 10.0 mi Calm Calm - 0.00 in   Overcast
2:54 PM 35.1 °F - 33.1 °F 92% 30.04 in 10.0 mi Calm Calm - N/A   Overcast
3:54 PM 35.1 °F - 32.0 °F 89% 30.00 in 10.0 mi Calm Calm - N/A   Overcast
4:28 PM 34.0 °F - 32.0 °F 92% 29.96 in 10.0 mi Calm Calm - N/A   Overcast
4:54 PM 34.0 °F - 30.9 °F 89% 29.98 in 10.0 mi Calm Calm - N/A   Overcast
5:54 PM 34.0 °F - 32.0 °F 92% 29.96 in 10.0 mi Calm Calm - N/A   Overcast
6:23 PM 34.0 °F - 32.0 °F 92% 29.93 in 10.0 mi Calm Calm - N/A   Overcast
6:31 PM 34.0 °F - 32.0 °F 92% 29.92 in 10.0 mi Calm Calm - N/A   Overcast
6:54 PM 34.0 °F - 32.0 °F 92% 29.92 in 10.0 mi Calm Calm - N/A   Overcast
7:22 PM 34.0 °F - 30.9 °F 89% 29.89 in 10.0 mi Calm Calm - N/A   Overcast
7:46 PM 34.0 °F - 32.0 °F 92% 29.88 in 10.0 mi Calm Calm - N/A   Overcast
7:54 PM 34.0 °F - 32.0 °F 92% 29.89 in 10.0 mi Calm Calm - N/A   Overcast
8:03 PM 34.0 °F - 32.0 °F 92% 29.88 in 6.0 mi Calm Calm - N/A   Overcast
8:14 PM 34.0 °F - 32.0 °F 92% 29.87 in 1.8 mi Calm Calm - N/A   Overcast
8:24 PM 34.0 °F - 33.1 °F 96% 29.87 in 1.2 mi Calm Calm - N/A   Overcast
8:40 PM 34.0 °F - 32.0 °F 92% 29.86 in 1.2 mi Calm Calm - N/A   Overcast
8:54 PM 34.0 °F - 33.1 °F 96% 29.87 in 1.2 mi Calm Calm - N/A   Overcast
9:04 PM 34.0 °F 31.0 °F 33.1 °F 96% 29.83 in 1.2 mi ESE 3.5 mph - N/A   Overcast
9:22 PM 34.0 °F - 33.1 °F 96% 29.84 in 0.8 mi Calm Calm - N/A   Mist
9:32 PM 34.0 °F - 33.1 °F 96% 29.83 in 0.8 mi Calm Calm - N/A   Mist
9:41 PM 34.0 °F 31.0 °F 33.1 °F 96% 29.83 in 0.5 mi NW 3.5 mph - N/A Fog Fog
9:54 PM 34.0 °F - 33.1 °F 96% 29.84 in 0.8 mi Calm Calm - N/A   Mist
10:16 PM 34.0 °F - 33.1 °F 96% 29.80 in 1.0 mi Calm Calm - N/A   Mist
10:31 PM 34.0 °F - 33.1 °F 96% 29.78 in 1.0 mi Calm Calm - N/A   Mist
10:54 PM 34.0 °F - 33.1 °F 96% 29.81 in 1.2 mi Calm Calm - N/A   Overcast
11:09 PM 34.0 °F - 33.1 °F 96% 29.77 in 1.5 mi Calm Calm - N/A   Overcast
11:13 PM 34.0 °F - 33.1 °F 96% 29.77 in 3.0 mi Calm Calm - N/A   Overcast
11:52 PM 33.8 °F - 33.8 °F 100% 29.76 in 5.0 mi Calm Calm - N/A   Overcast
11:54 PM 34.0 °F - 33.1 °F 96% 29.77 in 6.0 mi Calm Calm - N/A   Overcast